Preview of NWS' New Version of Forecast
This preview is not operational and should not be used for support decisions.

Regional Weather Roundup (RWR)

Issued by National Weather Service (NWS)

                            
000
ASUS43 KDMX 250301
RWRIA 

WEATHER ROUNDUP FOR IOWA
NATIONAL WEATHER SERVICE DES MOINES IA
1000 PM CDT MON JUN 24 2019

NOTE: "FAIR" INDICATES FEW OR NO CLOUDS BELOW 12,000 FEET WITH NO
SIGNIFICANT WEATHER AND/OR OBSTRUCTIONS TO VISIBILITY.

* - THESE STATIONS ARE NOT NWS STATIONS...THUS NOT UNDER NWS
QUALITY CONTROL.  THEY ALSO DO NOT REPORT WEATHER SUCH 
AS PRECIPITATION OR FOG.  

IAZ001>003-012>014-020>022-031>034-043>046-250400-
   NORTHWEST IOWA
  
CITY           SKY/WX    TMP DP  RH WIND       PRES   REMARKS
CARROLL *      CLEAR     68  59  73 SW12      29.76R                  
CHEROKEE *     CLEAR     61  61 100 CALM      29.75R                  
DENISON *      CLEAR     68  57  68 CALM      29.78R                  
LE MARS *      CLEAR     66  59  77 SE6       29.73R                  
SHELDON *        N/A     64  64 100 S7        29.71S                  
SIOUX CITY     CLEAR     66  58  75 S7        29.74R                  
SPENCER        CLEAR     65  56  72 SW7       29.73R                  
STORM LAKE *   CLEAR     63  59  88 SW6       29.73R                  
$$
 
IAZ055>058-069>071-079>083-090>094-250400-
   SOUTHWEST IOWA
  
CITY           SKY/WX    TMP DP  RH WIND       PRES   REMARKS
ATLANTIC *     CLEAR     64  64 100 SW5       29.79R                  
AUDUBON *      CLEAR     64  57  77 CALM      29.80R                  
CLARINDA *     CLEAR     66  63  88 S5        29.83R                  
COUNCIL BLFS * CLEAR     72  59  64 SW8       29.78R                  
CRESTON *      CLEAR     66  59  77 S8        29.82R                  
HARLAN  *      CLEAR     68  59  73 CALM      29.79R                  
LAMONI         CLEAR     68  59  73 SW8       29.82R                  
RED OAK *      CLEAR     66  63  88 S3        29.80R                  
SHENANDOAH *   CLEAR     68  61  77 SW6       29.79S                  
$$
 
IAZ047>049-059>061-072>074-084-250400-
   CENTRAL IOWA
  
CITY           SKY/WX    TMP DP  RH WIND       PRES   REMARKS
AMES           CLEAR     64  60  87 SW6       29.76R                  
ANKENY *       CLEAR     70  57  64 SW5       29.78R                  
BOONE *        CLEAR     64  64 100 SW5       29.76R                  
CHARITON *     CLEAR     68  63  83 SW6       29.81R                  
DES MOINES     PTCLDY    71  57  61 SW8       29.77R                  
GRINNELL*      CLEAR     63  59  85 SW6       29.79R                  
KNOXVILLE *    CLEAR     68  59  73 SW7       29.79R                  
MARSHALLTOWN   CLEAR     62  59  90 SW6       29.75R                  
NEWTON *       CLEAR     63  61  94 S5        29.78R                  
PELLA *        CLEAR     65  58  77 CALM      29.80R                  
$$
 
IAZ004>006-015-016-023>025-035-036-250400-
   NORTH CENTRAL IOWA
  
CITY           SKY/WX    TMP DP  RH WIND       PRES   REMARKS
ALGONA *       CLEAR     66  63  88 SW7       29.72R                  
CLARION *      MOCLDY    64  63  94 S7        29.75R                  
ESTHERVILLE    MOCLDY    66  58  75 SW9       29.72R                  
FORT DODGE *   CLEAR     65  61  87 W3        29.76R                  
MASON CITY     LGT RAIN  63  53  70 SW13      29.75R                  
FOREST CITY *  FAIR      63  59  88 S3        29.73S                  
IOWA FALLS *   FAIR      64  59  83 SW6       29.76R                  
$$

IAZ007>011-017>019-026>030-037>042-050>054-066-250400-
   NORTHEAST IOWA
  
CITY           SKY/WX    TMP DP  RH WIND       PRES   REMARKS
CEDAR RAPIDS   FAIR      66  58  75 W10       29.76R                  
CHARLES CITY * FAIR      66  59  77 CALM      29.74R                  
CLINTON *      FAIR      66  60  81 SW12      29.76R                  
DECORAH *      FAIR      63  61  94 CALM      29.71S                  
DUBUQUE        MOCLDY    63  61  93 CALM      29.76R                  
MONTICELLO *   FAIR      66  63  88 SW3       29.75R                  
OELWEIN *      FAIR      64  61  88 W5        29.75R                  
WATERLOO       FAIR      64  57  78 SW5       29.74R                  
$$
 
IAZ064-065-067-068-078-250400-
   EAST CENTRAL IOWA
  
CITY           SKY/WX    TMP DP  RH WIND       PRES   REMARKS
DAVENPORT      FAIR      68  57  68 SW9       29.78R                  
IOWA CITY      FAIR      70  58  65 SW8       29.78R                  
MT. PLEASANT * CLEAR     66  61  82 SW8       29.80R                  
MUSCATINE *    MOCLDY    70  59  68 SW9       29.78R                  
QUAD CITIES    FAIR      71  58  63 SW8       29.76R                  
$$
 
IAZ062-063-075>077-085>089-095>099-250400-
   SOUTHEAST IOWA
  
CITY           SKY/WX    TMP DP  RH WIND       PRES   REMARKS
BURLINGTON     CLEAR     67  59  75 SW7       29.80R                  
FAIRFIELD *    CLEAR     68  59  73 SW7       29.80R                  
FORT MADISON * CLEAR     68  61  77 SW6       29.82R                  
KEOKUK *       CLEAR     66  59  77 SW7       29.82R                  
OSKALOOSA *    FAIR      68  58  69 W5        29.80R                  
OTTUMWA        CLEAR     67  59  75 S6        29.79R                  
WASHINGTON *   CLOUDY    70  66  88 SW8       29.78R                  
$$

ABBREVIATIONS USED IN REMARKS
   TC - TEMPERATURES IN CELSIUS
  WCI - WIND CHILL INDEX
   HX - HEAT INDEX
  VSB - VISIBILITY  
$$